Time,TemperatureF,DewpointF,PressureIn,WindDirection,WindDirectionDegrees,WindSpeedMPH,WindSpeedGustMPH,Humidity,HourlyPrecipIn,Conditions,Clouds,dailyrainin,SoftwareType,DateUTC
2013-08-06 00:02:00,84.0,-99.9,30.00,North,3,6.0,7.0,-999,-99.99,,,-99.99,,2013-08-06 05:02:00,
2013-08-06 00:11:00,84.0,-99.9,30.00,North,3,5.0,7.0,-999,-99.99,,,-99.99,,2013-08-06 05:11:00,
2013-08-06 00:32:00,83.0,-99.9,29.99,SW,215,1.0,4.0,-999,-99.99,,,-99.99,,2013-08-06 05:32:00,
2013-08-06 00:43:00,83.0,-99.9,29.99,SW,236,3.0,4.0,-999,-99.99,,,-99.99,,2013-08-06 05:43:00,
2013-08-06 00:53:00,83.0,-99.9,29.99,WSW,251,-999.0,3.0,-999,-99.99,,,-99.99,,2013-08-06 05:53:00,
2013-08-06 01:02:00,83.0,-99.9,29.99,North,1,1.0,4.0,-999,-99.99,,,-99.99,,2013-08-06 06:02:00,
2013-08-06 01:12:00,83.0,-99.9,29.99,NNE,33,4.0,4.0,-999,-99.99,,,-99.99,,2013-08-06 06:12:00,
2013-08-06 01:32:00,83.0,-99.9,29.98,East,94,-999.0,-999.0,-999,-99.99,,,-99.99,,2013-08-06 06:32:00,
2013-08-06 01:43:00,83.0,-99.9,29.98,East,94,-999.0,2.0,-999,-99.99,,,-99.99,,2013-08-06 06:43:00,
2013-08-06 01:52:00,83.0,-99.9,29.97,WSW,241,0.0,0.0,-999,-99.99,,,-99.99,,2013-08-06 06:52:00,
2013-08-06 02:01:00,83.0,-99.9,29.97,WSW,237,-999.0,2.0,-999,-99.99,,,-99.99,,2013-08-06 07:01:00,
2013-08-06 02:12:00,83.0,-99.9,29.97,SSW,197,1.0,2.0,-999,-99.99,,,-99.99,,2013-08-06 07:12:00,
2013-08-06 02:32:00,83.0,-99.9,29.98,SW,232,-999.0,3.0,-999,-99.99,,,-99.99,,2013-08-06 07:32:00,
2013-08-06 02:44:00,83.0,-99.9,29.97,SSE,154,2.0,4.0,-999,-99.99,,,-99.99,,2013-08-06 07:44:00,
2013-08-06 02:53:00,83.0,-99.9,29.97,WNW,296,1.0,3.0,-999,-99.99,,,-99.99,,2013-08-06 07:53:00,
2013-08-06 03:02:00,83.0,-99.9,29.96,West,271,1.0,2.0,-999,-99.99,,,-99.99,,2013-08-06 08:02:00,
2013-08-06 03:11:00,83.0,-99.9,29.96,West,279,1.0,1.0,-999,-99.99,,,-99.99,,2013-08-06 08:11:00,
2013-08-06 03:33:00,83.0,-99.9,29.96,West,281,3.0,4.0,-999,-99.99,,,-99.99,,2013-08-06 08:33:00,
2013-08-06 03:43:00,83.0,-99.9,29.96,West,260,4.0,5.0,-999,-99.99,,,-99.99,,2013-08-06 08:43:00,
2013-08-06 03:52:00,83.0,-99.9,29.96,West,260,4.0,5.0,-999,-99.99,,,-99.99,,2013-08-06 08:52:00,
2013-08-06 04:01:00,82.0,-99.9,29.96,WNW,284,4.0,5.0,-999,-99.99,,,-99.99,,2013-08-06 09:01:00,
2013-08-06 04:11:00,82.0,-99.9,29.96,West,269,4.0,5.0,-999,-99.99,,,-99.99,,2013-08-06 09:11:00,
2013-08-06 04:33:00,83.0,-99.9,29.96,West,275,4.0,5.0,-999,-99.99,,,-99.99,,2013-08-06 09:33:00,
2013-08-06 04:43:00,82.0,-99.9,29.97,WNW,285,4.0,5.0,-999,-99.99,,,-99.99,,2013-08-06 09:43:00,
2013-08-06 04:52:00,82.0,-99.9,29.96,West,275,4.0,5.0,-999,-99.99,,,-99.99,,2013-08-06 09:52:00,
2013-08-06 05:02:00,83.0,-99.9,29.96,WNW,300,6.0,9.0,-999,-99.99,,,-99.99,,2013-08-06 10:02:00,
2013-08-06 05:12:00,83.0,-99.9,29.96,NW,316,8.0,9.0,-999,-99.99,,,-99.99,,2013-08-06 10:12:00,
2013-08-06 05:32:00,82.0,-99.9,29.97,WNW,292,4.0,6.0,-999,-99.99,,,-99.99,,2013-08-06 10:32:00,
2013-08-06 05:43:00,82.0,-99.9,29.97,NW,304,4.0,8.0,-999,-99.99,,,-99.99,,2013-08-06 10:43:00,
2013-08-06 05:53:00,83.0,-99.9,29.98,NNW,329,7.0,9.0,-999,-99.99,,,-99.99,,2013-08-06 10:53:00,
2013-08-06 06:02:00,83.0,-99.9,29.98,NNW,328,6.0,7.0,-999,-99.99,,,-99.99,,2013-08-06 11:02:00,
2013-08-06 06:11:00,83.0,-99.9,29.98,NW,324,6.0,7.0,-999,-99.99,,,-99.99,,2013-08-06 11:11:00,
2013-08-06 06:32:00,83.0,-99.9,29.98,NW,326,5.0,7.0,-999,-99.99,,,-99.99,,2013-08-06 11:32:00,
2013-08-06 06:43:00,83.0,-99.9,29.98,NW,322,6.0,8.0,-999,-99.99,,,-99.99,,2013-08-06 11:43:00,
2013-08-06 06:53:00,83.0,-99.9,29.99,NNW,334,6.0,10.0,-999,-99.99,,,-99.99,,2013-08-06 11:53:00,
2013-08-06 07:02:00,83.0,-99.9,29.99,NNW,340,8.0,9.0,-999,-99.99,,,-99.99,,2013-08-06 12:02:00,
2013-08-06 07:11:00,83.0,-99.9,29.99,NNW,340,8.0,9.0,-999,-99.99,,,-99.99,,2013-08-06 12:11:00,
2013-08-06 07:32:00,83.0,-99.9,30.01,NNW,343,5.0,7.0,-999,-99.99,,,-99.99,,2013-08-06 12:32:00,
2013-08-06 07:43:00,83.0,-99.9,30.01,NNW,332,6.0,8.0,-999,-99.99,,,-99.99,,2013-08-06 12:43:00,
2013-08-06 07:52:00,83.0,-99.9,30.01,NW,319,8.0,10.0,-999,-99.99,,,-99.99,,2013-08-06 12:52:00,
2013-08-06 08:02:00,83.0,-99.9,30.01,NW,310,9.0,11.0,-999,-99.99,,,-99.99,,2013-08-06 13:02:00,
2013-08-06 08:11:00,83.0,-99.9,30.01,NW,313,9.0,11.0,-999,-99.99,,,-99.99,,2013-08-06 13:11:00,
2013-08-06 08:32:00,83.0,-99.9,30.02,NW,319,11.0,13.0,-999,-99.99,,,-99.99,,2013-08-06 13:32:00,
2013-08-06 08:53:00,83.0,-99.9,30.02,NW,319,11.0,15.0,-999,-99.99,,,-99.99,,2013-08-06 13:53:00,
2013-08-06 09:01:00,83.0,-99.9,30.02,NW,316,13.0,16.0,-999,-99.99,,,-99.99,,2013-08-06 14:01:00,
2013-08-06 09:11:00,83.0,-99.9,30.02,NW,308,14.0,14.0,-999,-99.99,,,-99.99,,2013-08-06 14:11:00,
2013-08-06 09:22:00,83.0,-99.9,30.02,NW,308,14.0,14.0,-999,-99.99,,,-99.99,,2013-08-06 14:22:00,
2013-08-06 09:32:00,83.0,-99.9,30.02,NW,314,13.0,14.0,-999,-99.99,,,-99.99,,2013-08-06 14:32:00,
2013-08-06 09:42:00,83.0,-99.9,30.03,NW,316,13.0,15.0,-999,-99.99,,,-99.99,,2013-08-06 14:42:00,
2013-08-06 09:53:00,83.0,-99.9,30.03,NW,321,10.0,13.0,-999,-99.99,,,-99.99,,2013-08-06 14:53:00,
2013-08-06 10:02:00,83.0,-99.9,30.03,NNW,327,11.0,13.0,-999,-99.99,,,-99.99,,2013-08-06 15:02:00,
2013-08-06 10:12:00,83.0,-99.9,30.03,NW,320,11.0,12.0,-999,-99.99,,,-99.99,,2013-08-06 15:12:00,
2013-08-06 10:33:00,84.0,-99.9,30.03,NNW,333,9.0,11.0,-999,-99.99,,,-99.99,,2013-08-06 15:33:00,
2013-08-06 10:44:00,84.0,-99.9,30.03,NNW,335,8.0,10.0,-999,-99.99,,,-99.99,,2013-08-06 15:44:00,
2013-08-06 10:52:00,85.0,-99.9,30.03,NNW,327,8.0,9.0,-999,-99.99,,,-99.99,,2013-08-06 15:52:00,
2013-08-06 11:02:00,85.0,-99.9,30.03,NNW,336,8.0,9.0,-999,-99.99,,,-99.99,,2013-08-06 16:02:00,
2013-08-06 11:11:00,85.0,-99.9,30.03,NNW,342,8.0,11.0,-999,-99.99,,,-99.99,,2013-08-06 16:11:00,
2013-08-06 11:32:00,86.0,-99.9,30.03,North,350,8.0,10.0,-999,-99.99,,,-99.99,,2013-08-06 16:32:00,
2013-08-06 11:43:00,86.0,-99.9,30.02,North,353,7.0,9.0,-999,-99.99,,,-99.99,,2013-08-06 16:43:00,
2013-08-06 11:52:00,86.0,-99.9,30.02,North,9,7.0,11.0,-999,-99.99,,,-99.99,,2013-08-06 16:52:00,
2013-08-06 12:02:00,85.0,-99.9,30.02,NNE,19,8.0,10.0,-999,-99.99,,,-99.99,,2013-08-06 17:02:00,
2013-08-06 12:11:00,85.0,-99.9,30.02,NNE,25,9.0,10.0,-999,-99.99,,,-99.99,,2013-08-06 17:11:00,
2013-08-06 12:32:00,85.0,-99.9,30.01,NNE,28,9.0,10.0,-999,-99.99,,,-99.99,,2013-08-06 17:32:00,
2013-08-06 12:44:00,85.0,-99.9,30.01,NNE,30,9.0,11.0,-999,-99.99,,,-99.99,,2013-08-06 17:44:00,
2013-08-06 12:52:00,85.0,-99.9,30.01,NNE,28,8.0,9.0,-999,-99.99,,,-99.99,,2013-08-06 17:52:00,
2013-08-06 13:02:00,86.0,-99.9,30.01,NE,35,5.0,7.0,-999,-99.99,,,-99.99,,2013-08-06 18:02:00,
2013-08-06 13:11:00,86.0,-99.9,30.01,NNE,29,5.0,5.0,-999,-99.99,,,-99.99,,2013-08-06 18:11:00,
2013-08-06 13:32:00,86.0,-99.9,30.01,NNE,21,3.0,4.0,-999,-99.99,,,-99.99,,2013-08-06 18:32:00,
2013-08-06 13:44:00,88.0,-99.9,30.01,NE,42,3.0,5.0,-999,-99.99,,,-99.99,,2013-08-06 18:44:00,
2013-08-06 13:52:00,87.0,-99.9,30.01,NE,46,4.0,6.0,-999,-99.99,,,-99.99,,2013-08-06 18:52:00,
2013-08-06 14:01:00,87.0,-99.9,30.01,ENE,76,3.0,5.0,-999,-99.99,,,-99.99,,2013-08-06 19:01:00,
2013-08-06 14:11:00,87.0,-99.9,30.01,SE,141,4.0,5.0,-999,-99.99,,,-99.99,,2013-08-06 19:11:00,
2013-08-06 14:32:00,87.0,-99.9,29.99,SSE,167,4.0,6.0,-999,-99.99,,,-99.99,,2013-08-06 19:32:00,
2013-08-06 14:42:00,87.0,-99.9,29.99,South,176,6.0,7.0,-999,-99.99,,,-99.99,,2013-08-06 19:42:00,
2013-08-06 14:52:00,88.0,-99.9,29.98,South,181,5.0,7.0,-999,-99.99,,,-99.99,,2013-08-06 19:52:00,
2013-08-06 15:01:00,88.0,-99.9,29.98,South,185,5.0,7.0,-999,-99.99,,,-99.99,,2013-08-06 20:01:00,
2013-08-06 15:11:00,88.0,-99.9,29.98,SW,226,6.0,9.0,-999,-99.99,,,-99.99,,2013-08-06 20:11:00,
2013-08-06 15:32:00,88.0,-99.9,29.98,South,184,6.0,10.0,-999,-99.99,,,-99.99,,2013-08-06 20:32:00,
2013-08-06 15:44:00,88.0,-99.9,29.98,SSW,196,6.0,9.0,-999,-99.99,,,-99.99,,2013-08-06 20:44:00,
2013-08-06 15:52:00,88.0,-99.9,29.97,SW,219,6.0,10.0,-999,-99.99,,,-99.99,,2013-08-06 20:52:00,
2013-08-06 16:02:00,88.0,-99.9,29.97,South,186,8.0,11.0,-999,-99.99,,,-99.99,,2013-08-06 21:02:00,
2013-08-06 16:12:00,88.0,-99.9,29.97,SSW,194,6.0,11.0,-999,-99.99,,,-99.99,,2013-08-06 21:12:00,
2013-08-06 16:32:00,88.0,-99.9,29.96,SW,218,9.0,13.0,-999,-99.99,,,-99.99,,2013-08-06 21:32:00,
2013-08-06 16:43:00,88.0,-99.9,29.96,SW,225,11.0,13.0,-999,-99.99,,,-99.99,,2013-08-06 21:43:00,
2013-08-06 16:53:00,88.0,-99.9,29.95,SW,216,8.0,13.0,-999,-99.99,,,-99.99,,2013-08-06 21:53:00,
2013-08-06 17:02:00,88.0,-99.9,29.94,SSW,213,9.0,14.0,-999,-99.99,,,-99.99,,2013-08-06 22:02:00,
2013-08-06 17:11:00,88.0,-99.9,29.95,SW,227,10.0,14.0,-999,-99.99,,,-99.99,,2013-08-06 22:11:00,
2013-08-06 17:32:00,88.0,-99.9,29.94,SW,229,10.0,15.0,-999,-99.99,,,-99.99,,2013-08-06 22:32:00,
2013-08-06 17:43:00,88.0,-99.9,29.95,SW,223,11.0,15.0,-999,-99.99,,,-99.99,,2013-08-06 22:43:00,
2013-08-06 17:53:00,88.0,-99.9,29.95,WSW,237,10.0,13.0,-999,-99.99,,,-99.99,,2013-08-06 22:53:00,
2013-08-06 18:02:00,88.0,-99.9,29.95,SW,226,10.0,14.0,-999,-99.99,,,-99.99,,2013-08-06 23:02:00,
2013-08-06 18:11:00,88.0,-99.9,29.96,WSW,243,8.0,12.0,-999,-99.99,,,-99.99,,2013-08-06 23:11:00,
2013-08-06 18:33:00,89.0,-99.9,29.95,SW,227,9.0,13.0,-999,-99.99,,,-99.99,,2013-08-06 23:33:00,
2013-08-06 18:43:00,89.0,-99.9,29.96,SW,236,8.0,12.0,-999,-99.99,,,-99.99,,2013-08-06 23:43:00,
2013-08-06 18:52:00,89.0,-99.9,29.96,SW,222,9.0,12.0,-999,-99.99,,,-99.99,,2013-08-06 23:52:00,
2013-08-06 19:01:00,89.0,-99.9,29.99,WSW,249,4.0,8.0,-999,-99.99,,,-99.99,,2013-08-07 00:01:00,
2013-08-06 19:11:00,89.0,-99.9,29.98,WSW,250,5.0,11.0,-999,-99.99,,,-99.99,,2013-08-07 00:11:00,
2013-08-06 19:32:00,88.0,-99.9,29.98,SW,232,4.0,6.0,-999,-99.99,,,-99.99,,2013-08-07 00:32:00,
2013-08-06 19:43:00,88.0,-99.9,29.98,SW,235,4.0,14.0,-999,-99.99,,,-99.99,,2013-08-07 00:43:00,
2013-08-06 19:52:00,83.0,-99.9,29.97,ENE,63,23.0,26.0,-999,-99.99,,,-99.99,,2013-08-07 00:52:00,
2013-08-06 20:01:00,83.0,-99.9,29.98,ENE,57,14.0,15.0,-999,-99.99,,,-99.99,,2013-08-07 01:01:00,
2013-08-06 20:11:00,82.0,-99.9,29.98,ENE,59,14.0,15.0,-999,-99.99,,,-99.99,,2013-08-07 01:11:00,
2013-08-06 20:32:00,83.0,-99.9,29.98,ENE,74,10.0,11.0,-999,-99.99,,,-99.99,,2013-08-07 01:32:00,
2013-08-06 20:43:00,83.0,-99.9,29.99,ENE,71,10.0,13.0,-999,-99.99,,,-99.99,,2013-08-07 01:43:00,
2013-08-06 20:53:00,84.0,-99.9,29.99,ENE,69,11.0,11.0,-999,-99.99,,,-99.99,,2013-08-07 01:53:00,
2013-08-06 21:02:00,84.0,-99.9,30.00,ENE,64,10.0,10.0,-999,-99.99,,,-99.99,,2013-08-07 02:02:00,
2013-08-06 21:11:00,85.0,-99.9,30.00,ENE,71,9.0,10.0,-999,-99.99,,,-99.99,,2013-08-07 02:11:00,
2013-08-06 21:33:00,85.0,-99.9,30.01,East,84,10.0,10.0,-999,-99.99,,,-99.99,,2013-08-07 02:33:00,
2013-08-06 21:43:00,85.0,-99.9,30.02,ENE,76,10.0,11.0,-999,-99.99,,,-99.99,,2013-08-07 02:43:00,
2013-08-06 21:53:00,85.0,-99.9,30.03,ENE,64,8.0,22.0,-999,-99.99,,,-99.99,,2013-08-07 02:53:00,
2013-08-06 22:01:00,82.0,-99.9,30.03,NNE,24,21.0,23.0,-999,-99.99,,,-99.99,,2013-08-07 03:01:00,
2013-08-06 22:12:00,82.0,-99.9,30.04,NNE,23,20.0,25.0,-999,-99.99,,,-99.99,,2013-08-07 03:12:00,
2013-08-06 22:32:00,82.0,-99.9,30.03,NNE,20,17.0,19.0,-999,-99.99,,,-99.99,,2013-08-07 03:32:00,
2013-08-06 22:43:00,82.0,-99.9,30.04,NNE,17,19.0,20.0,-999,-99.99,,,-99.99,,2013-08-07 03:43:00,
2013-08-06 22:52:00,82.0,-99.9,30.03,NNE,26,19.0,19.0,-999,-99.99,,,-99.99,,2013-08-07 03:52:00,
2013-08-06 23:01:00,82.0,-99.9,30.03,NNE,16,15.0,18.0,-999,-99.99,,,-99.99,,2013-08-07 04:01:00,
2013-08-06 23:11:00,82.0,-99.9,30.02,NNE,22,14.0,16.0,-999,-99.99,,,-99.99,,2013-08-07 04:11:00,
2013-08-06 23:33:00,82.0,-99.9,30.00,NE,42,11.0,11.0,-999,-99.99,,,-99.99,,2013-08-07 04:33:00,
2013-08-06 23:43:00,82.0,-99.9,29.99,ENE,63,11.0,13.0,-999,-99.99,,,-99.99,,2013-08-07 04:43:00,
2013-08-06 23:52:00,82.0,-99.9,29.98,ESE,104,12.0,16.0,-999,-99.99,,,-99.99,,2013-08-07 04:52:00,